Regional Weather Roundup
Issued by NWS

Home | Current Version | Previous Version | Text Only | Print | Product List | Glossary On
Versions: 1 2 3 4 5 6 7 8 9 10 11 12 13 14 15 16 17 18 19 20 21 22 23 24 25 26 27 28 29 30 31 32 33 34 35 36 37 38 39 40 41 42 43 44 45 46 47 48 49 50
000
ASUS43 KMKX 210021
RWRWI

WISCONSIN REGIONAL WEATHER ROUNDUP
NATIONAL WEATHER SERVICE MILWAUKEE/SULLIVAN WI
700 PM CDT MON OCT 20 2014

NOTE: "FAIR" INDICATES FEW OR NO CLOUDS BELOW 12,000 FEET WITH NO
SIGNIFICANT WEATHER AND/OR OBSTRUCTIONS TO VISIBILITY.

WIZ001-002-006>008-014>016-023>028-210100-
NORTHWEST WISCONSIN

CITY           SKY/WX    TMP DP  RH WIND       PRES   REMARKS
SUPERIOR ARPT  CLOUDY    48  38  66 N8        30.07R
6HR MIN TEMP:  48; 6HR MAX TEMP:  52;

ASHLAND        CLOUDY    49  39  68 N6        30.07R
6HR MIN TEMP:  49; 6HR MAX TEMP:  55;

HAYWARD        CLOUDY    50  40  68 VRB7      30.05R
6HR MIN TEMP:  50; 6HR MAX TEMP:  53;

SIREN          CLOUDY    50  38  63 N3        30.06R
6HR MIN TEMP:  50; 6HR MAX TEMP:  57;

CUMBERLAND     CLOUDY    48  37  66 N7        30.05R
RICE LAKE      CLOUDY    50  39  66 NW5       30.06R
6HR MIN TEMP:  50; 6HR MAX TEMP:  55;

CHETEK         CLOUDY    50  40  68 CALM      30.04R
6HR MIN TEMP:  50; 6HR MAX TEMP:  54;

LADYSMITH      CLOUDY    50  41  71 N3        30.04R
6HR MIN TEMP:  50; 6HR MAX TEMP:  53;

EAU CLAIRE     CLOUDY    51  38  60 N3        30.03R
6HR MIN TEMP:  51; 6HR MAX TEMP:  59;

MENOMONIE      PTCLDY    51  39  63 NE6       30.04R
6HR MIN TEMP:  51; 6HR MAX TEMP:  60;

NEW RICHMOND   CLEAR     51  39  64 N6        30.04R
6HR MIN TEMP:  51; 6HR MAX TEMP:  60;

OSCEOLA        CLEAR     51  40  67 N6        30.07R
6HR MIN TEMP:  51; 6HR MAX TEMP:  60;

$$

WIZ003>005-009-010-017-018-210100-
NORTH CENTRAL WISCONSIN

CITY           SKY/WX    TMP DP  RH WIND       PRES   REMARKS
MANITOWISH WTR CLOUDY    43  42  97 N7        30.02R
6HR MIN TEMP:  43; 6HR MAX TEMP:  47;

ARBOR VITAE    CLOUDY    45  42  89 N6        30.02R
6HR MIN TEMP:  45; 6HR MAX TEMP:  49;

WOODRUFF       CLOUDY    45  42  89 N6        30.02R
6HR MIN TEMP:  45; 6HR MAX TEMP:  49;

RHINELANDER    LGT RAIN  43  40  89 N7        30.03R
6HR MIN TEMP:  43; 6HR MAX TEMP:  48; 6HR PCP:  0.03;

EAGLE RIVER    LGT RAIN  42  41  93 N7        30.01R
6HR MIN TEMP:  42; 6HR MAX TEMP:  50;

LAND O LAKES   CLOUDY    43  41  92 NW6       30.02R
6HR MIN TEMP:  43; 6HR MAX TEMP:  47;

PHILLIPS       CLOUDY    47  40  75 N5        30.02R
TOMAHAWK       CLOUDY    46  40  80 CALM      30.02R
6HR MIN TEMP:  46; 6HR MAX TEMP:  48;

MEDFORD        CLOUDY    47  39  73 N3        30.02R
6HR MIN TEMP:  47; 6HR MAX TEMP:  50;

MERRILL        CLOUDY    47  40  76 N5        30.01R
6HR MIN TEMP:  46; 6HR MAX TEMP:  50;

$$

WIZ029-030-035-036-043>047-210100-
CENTRAL WISCONSIN

CITY           SKY/WX    TMP DP  RH WIND       PRES   REMARKS
WAUSAU         CLOUDY    49  40  71 NW5       30.00R
6HR MIN TEMP:  49; 6HR MAX TEMP:  52;

MOSINEE        CLOUDY    48  41  76 N7        30.02R
MARSHFIELD     CLOUDY    50  41  71 N5        30.01R
6HR MIN TEMP:  50; 6HR MAX TEMP:  55;

STEVENS POINT  CLOUDY    48  39  70 NW6       30.01R
6HR MIN TEMP:  48; 6HR MAX TEMP:  51; 6HR PCP:  0.02;

WAUPACA        CLOUDY    53  43  69 NW6       30.00R
6HR MIN TEMP:  53; 6HR MAX TEMP:  55;

WAUTOMA        CLOUDY    52  42  68 N7        30.01R
6HR MIN TEMP:  52; 6HR MAX TEMP:  55;

WISC RAPIDS    CLOUDY    51  40  65 N5        30.02R
6HR MIN TEMP:  51; 6HR MAX TEMP:  56;

CAMP DOUGLAS   MOCLDY    54  41  62 N7        30.01R
$$

WIZ011>013-019>022-031-037>040-048>050-210100-
NORTHEAST WISCONSIN

CITY           SKY/WX    TMP DP  RH WIND       PRES   REMARKS
ANTIGO         CLOUDY    44  40  83 N12       30.01R
6HR MIN TEMP:  44; 6HR MAX TEMP:  48;

SHAWANO        CLOUDY    51  43  73 N7        29.99R
6HR MIN TEMP:  51; 6HR MAX TEMP:  56;

OCONTO         CLOUDY    48  44  86 NW3       29.98R
6HR MIN TEMP:  48; 6HR MAX TEMP:  52;

STURGEON BAY   CLOUDY    48  39  71 N17       29.98R
6HR MIN TEMP:  48; 6HR MAX TEMP:  52;

GREEN BAY      LGT RAIN  49  45  86 N6        29.98R
6HR MIN TEMP:  49; 6HR MAX TEMP:  55; 6HR PCP:  0.01;

MANITOWOC      CLOUDY    48  45  89 NW7       29.97R
6HR MIN TEMP:  48; 6HR MAX TEMP:  54; 6HR PCP: TRACE;

APPLETON       CLOUDY    50  43  76 NW8       29.98R
CLINTONVILLE   CLOUDY    52  41  66 NW10      29.99R
OSHKOSH        CLOUDY    51  44  77 NW7       29.98R
6HR MIN TEMP:  51; 6HR MAX TEMP:  54;

$$

WIZ032>034-041-042-053>061-210100-
SOUTHWEST WISCONSIN

CITY           SKY/WX    TMP DP  RH WIND       PRES   REMARKS
LA CROSSE      PTCLDY    56  40  55 N8        30.00R
6HR MIN TEMP:  55; 6HR MAX TEMP:  67;

SPARTA         CLEAR     50  37  60 N5        30.02R
6HR MIN TEMP:  50; 6HR MAX TEMP:  62;

VIROQUA        CLEAR     49  40  69 N5        30.00R
6HR MIN TEMP:  49; 6HR MAX TEMP:  62;

BOSCOBEL       PTCLDY    57  41  55 NE3       29.99R
6HR MIN TEMP:  57; 6HR MAX TEMP:  67;

PRAIRIE DU CHI CLEAR     58  40  51 CALM      29.98R
6HR MIN TEMP:  58; 6HR MAX TEMP:  66;

PLATTEVILLE    CLEAR     52  41  66 N5        29.99R
6HR MIN TEMP:  52; 6HR MAX TEMP:  65;

$$

WIZ056-057-062-063-064-067-068-210100-
SOUTH CENTRAL WISCONSIN

CITY           SKY/WX    TMP DP  RH WIND       PRES   REMARKS
REEDSBURG      MOCLDY    53  39  61 N7        29.99R
6HR MIN TEMP:  52; 6HR MAX TEMP:  60;

BARABOO/DELLS  CLOUDY    53  38  56 N3        30.00R
6HR MIN TEMP:  53; 6HR MAX TEMP:  58;

LONE ROCK      CLEAR     56  39  53 N6        29.99R
6HR MIN TEMP:  56; 6HR MAX TEMP:  68; 6HR PCP: TRACE;

MINERAL POINT  PTCLDY    54  37  54 N5        29.98R
MADISON        CLOUDY    53  41  63 N3        29.99R
6HR MIN TEMP:  53; 6HR MAX TEMP:  62;

MIDDLETON      CLOUDY    55  40  58 N6        29.99R
6HR MIN TEMP:  54; 6HR MAX TEMP:  63;

WATERTOWN      CLOUDY    51  42  71 NW5       29.98R
6HR MIN TEMP:  51; 6HR MAX TEMP:  56;

MONROE         MOCLDY    50  41  71 N6        29.98R
JANESVILLE     CLOUDY    55  39  54 N8        29.97R
$$

WIZ051-052-058>065-066-070>072-210100-
SOUTHEAST WISCONSIN

CITY           SKY/WX    TMP DP  RH WIND       PRES   REMARKS
MILWAUKEE      CLOUDY    53  42  66 NW8       29.96R
6HR MIN TEMP:  53; 6HR MAX TEMP:  60;

WAUKESHA       CLOUDY    50  41  71 NW12      29.98R
MILWAUKEE/TIMM CLOUDY    52  41  66 NW7       29.97R
RACINE         CLOUDY    53  42  66 NW3       29.98R
6HR MIN TEMP:  52; 6HR MAX TEMP:  59; 6HR PCP: TRACE;

BURLINGTON     CLOUDY    51  41  68 N8        29.98R
6HR MIN TEMP:  51; 6HR MAX TEMP:  61;

KENOSHA        CLOUDY    53  43  68 NW7       29.97R
6HR MIN TEMP:  53; 6HR MAX TEMP:  63;

FOND DU LAC    CLOUDY    51  42  71 NW8       29.98R
6HR MIN TEMP:  51; 6HR MAX TEMP:  54;

SHEBOYGAN      CLOUDY    49  44  83 N5        29.98R
6HR MIN TEMP:  49; 6HR MAX TEMP:  54; 6HR PCP: TRACE;

WEST BEND      CLOUDY    50  41  71 NW8       29.97R
JUNEAU         CLOUDY    50  42  73 NW5       30.00R
6HR MIN TEMP:  50; 6HR MAX TEMP:  53;

$$

LSZ147-162-210100-
LAKE SUPERIOR

STATION/POSITION TIME  TEMP    WIND        PRES    WAVE
                       AIR SEA DIR/SP/G            HT/PER
                 (UTC) (F)     (DEG/KT/KT) (MB)    (FT/S)
W MID LAKE BUOY  2350   46 46   40/ 12/ 14 1018.0R   1/ 3
DEVILS ISLAND    0000   49      30/ 14/ 15 1018.4R
PORT WING        2340   50     350/  9/ 11 1017.9R
SAXON HARBOR     2300   50     340/  5/  6 1016.9R
$$

LMZ867-665-643>646-210100-
LAKE MICHIGAN

STATION/POSITION TIME  TEMP    WIND        PRES    WAVE
                       AIR SEA DIR/SP/G            HT/PER



USA.gov is the U.S. government's official web portal to all federal, state and local government web resources and services.